Hourly Data Report for September 02, 2017

All times are specified in Local Standard Time (LST). Add 1 hour to adjust for Daylight Saving Time where and when it is observed.

FISHER BRANCH (AUT)
MANITOBA

51°05'00.100" N
97°33'16.200" W
253.00 m
50309J6
71442
WSZ

Download Data

Hourly Data (September 2017)
Hourly Data Report for September 2, 2017
Temp Definition
°C
Dew Point Temp Definition
°C
Rel Hum Definition
%
Wind Dir Definition
10's deg

Wind Spd Definition
km/h
Visibility Definition
km
Stn Press Definition
kPa
Hmdx Definition


Wind Chill Definition


Weather Definition


TIME
00:00 13.0 10.7 86 25 5   97.92     LegendNANA
01:00 13.2 11.2 87 25 7   97.92     LegendNANA
02:00 11.6 10.2 91 29 2   97.94     LegendNANA
03:00 12.0 11.2 95 23 6   97.93     LegendNANA
04:00 13.4 11.8 90 26 9   97.94     LegendNANA
05:00 12.8 11.1 89 25 8   97.97     LegendNANA
06:00 13.4 11.2 87 26 9   98.00     LegendNANA
07:00 13.8 11.1 84 26 11   98.04     LegendNANA
08:00 16.1 11.7 76 27 12   98.07     LegendNANA
09:00 19.1 11.5 62 28 14   98.07     LegendNANA
10:00 20.7 10.6 52 28 13   98.07     LegendNANA
11:00 22.5 10.3 46 27 16   98.06     LegendNANA
12:00 23.4 9.6 41 27 17   98.05     LegendNANA
13:00 23.7 8.1 37 29 23   98.04     LegendNANA
14:00 23.9 7.6 35 29 21   98.02     LegendNANA
15:00 24.1 7.9 36 30 19   98.00     LegendNANA
16:00 22.6 7.7 38 29 14   98.01     LegendNANA
17:00 24.0 8.2 37 29 12   97.98     LegendNANA
18:00 22.9 9.1 41 29 8   97.96     LegendNANA
19:00 19.2 9.9 55 27 5   97.96     LegendNANA
20:00 14.8 10.6 76 23 4   97.96     LegendNANA
21:00 13.7 10.7 82 20 9   97.96     LegendNANA
22:00 13.0 9.7 80 21 5   97.94     LegendNANA
23:00 12.3 9.6 84 20 9   97.93     LegendNANA

Notes on Data Quality.

Legend

  • E = Estimated
  • M = Missing
  • NA = Not Available
  • ‡ = Partner data that is not subject to review by the National Climate Archives
Date modified: